ANDOYA/ANDENES(AFB) current weather conditions

sailwx.info

Wind from 280 at 18 knots

Air temperature 1.0° C
Visibility: greater than 5.4 NM
Dewpoint -4.0° C
Present weather: Showers in the vicinity.

Last reported at 2020-Jan-22 12:50 UTC.
Time now 2020-Jan-22 13:32 UTC

Location: N 69°18' E 016°08'.
View on Google Maps.

See reports from other nearby stations

  
Tides and Currents Weather Stations Pressure Air Temp Water Temp Dewpoint Dewpoint Depression Visibility Wind Speed Wind Dir Waves Ship Positions
date/time (UTC)wind fromknots sea level pressurealtimeterstation pressurevisibilityair tempwater tempwave heightnotes
2020-Jan-22 12:50 280 18 5.4 1.0 Showers in the vicinity.
2020-Jan-22 12:20 300 20 5.4 2.0
2020-Jan-22 11:50 300 20 5.4 1.0
2020-Jan-22 11:20 300 19 5.4 1.0 Showers in the vicinity.
2020-Jan-22 10:50 300 20 5.4-0.0 Showers in the vicinity.
2020-Jan-22 10:20 290 13 gusting 28 5.4-0.0 Light snow showers.
2020-Jan-22 09:50 270 6 5.4-1.0
2020-Jan-22 09:20 310 20 1.3-0.0 Light snow.
2020-Jan-22 08:50 330 11 5.4-0.0 Showers in the vicinity.
2020-Jan-22 08:20 350 13 5.4-0.0 Showers in the vicinity.
2020-Jan-22 07:50 360 19 5.4-0.0 Light snow showers.
2020-Jan-22 07:20 360 19 5.4-0.0
2020-Jan-22 06:50 350 9 5.4-0.0 Light drizzle snow.
2020-Jan-22 06:20 360 18 gusting 27 1.7-1.0 Light snow.
2020-Jan-22 05:50 340 12 5.4-1.0
2020-Jan-22 05:20 350 12 gusting 24 5.4-0.0 Light drizzle snow.
2020-Jan-22 04:50 360 20 5.4-0.0 Light drizzle snow.
2020-Jan-22 04:20 330 20 5.4-0.0
2020-Jan-22 03:50 360 19 5.4-0.0
2020-Jan-22 03:20 350 19 5.4 1.0
2020-Jan-22 02:50 360 13 5.4 1.0
2020-Jan-22 02:20 350 20 5.4 1.0
2020-Jan-22 01:50 360 15 gusting 27 5.4 2.0
2020-Jan-22 01:20 350 17 5.4 2.0
2020-Jan-22 00:50 350 17 5.4 2.0 Light rain.
2020-Jan-22 00:20 340 8 5.4 1.0
2020-Jan-21 23:50 020 17 5.4 2.0
2020-Jan-21 23:20 360 7 5.4 1.0
2020-Jan-21 22:50 010 12 2.2 1.0 Light snow.
2020-Jan-21 22:20 330 15 4.3 2.0 Showers in the vicinity.
2020-Jan-21 21:50 310 13 5.4 2.0
2020-Jan-21 21:20 320 14 5.4 2.0
2020-Jan-21 20:50 330 12 5.4 2.0
2020-Jan-21 20:20 320 13 5.4 2.0
2020-Jan-21 19:50 320 9 5.4 1.0
2020-Jan-21 19:20 300 12 5.4 1.0
2020-Jan-21 18:50 290 12 5.4 1.0
2020-Jan-21 18:20 330 7 5.4 1.0 Light rain.
2020-Jan-21 17:50 290 14 5.4 1.0
2020-Jan-21 17:20 300 13 5.4 1.0
2020-Jan-21 16:50 310 13 5.4-0.0
2020-Jan-21 16:20 300 17 5.4 1.0
2020-Jan-21 15:50 300 18 5.4 1.0
2020-Jan-21 15:20 320 19 4.9-0.0
2020-Jan-21 14:50 280 9 5.4-0.0 Showers in the vicinity.
2020-Jan-21 14:20 280 9 5.4-0.0
2020-Jan-21 13:50 310 24 3.2-0.0 Light snow showers.
2020-Jan-21 13:20 300 17 5.4 1.0 Showers in the vicinity.
2020-Jan-21 12:50 320 18 5.4-0.0 Showers in the vicinity.
2020-Jan-21 12:20 260 20 5.4 1.0 Showers in the vicinity.
2020-Jan-21 11:50 260 22 5.4 1.0
2020-Jan-21 11:20 280 26 2.7 1.0 Light snow showers.
2020-Jan-21 10:50 250 18 gusting 34 5.4-0.0 Light snow showers.
2020-Jan-21 10:20 250 21 5.4 1.0 Light snow showers.
2020-Jan-21 09:50 270 22 5.4 2.0 Showers in the vicinity.
2020-Jan-21 09:20 260 20 gusting 31 5.4 1.0 Showers in the vicinity.
2020-Jan-21 08:50 270 22 gusting 34 5.4 1.0 Showers in the vicinity.
2020-Jan-21 08:20 280 27 2.4 1.0 Light snow.
2020-Jan-21 07:50 270 26 gusting 35 2.2 2.0 Light drizzle snow.
2020-Jan-21 07:20 280 19 5.4 1.0 Showers in the vicinity.
2020-Jan-21 06:50 250 21 gusting 34 5.4-0.0 Light rain.
2020-Jan-21 06:20 270 34 gusting 47 5.4 2.0 Light rain.
2020-Jan-21 05:50 270 24 5.4 2.0 Showers in the vicinity.
2020-Jan-21 05:20 260 21 gusting 34 5.4 2.0 Light rain.
2020-Jan-21 04:50 260 27 gusting 42 5.4 2.0 Light snow.
2020-Jan-21 04:20 260 20 5.4 2.0 Showers in the vicinity.
2020-Jan-21 03:50 270 29 gusting 45 0.8 1.0 Light snow.
2020-Jan-21 03:20 290 21 5.4 2.0
2020-Jan-21 02:50 280 31 gusting 42 5.4 3.0 Precipitation.
2020-Jan-21 02:20 280 27 gusting 40 5.4 2.0
2020-Jan-21 01:50 280 24 5.4 2.0
2020-Jan-21 01:20 280 27 gusting 36 5.4 2.0
2020-Jan-21 00:50 230 20 2.7 2.0 Drizzle.
2020-Jan-21 00:20 250 24 gusting 39 2.3 2.0 Light snow.
2020-Jan-20 23:50 220 18 5.4 3.0 Light rain.
2020-Jan-20 23:20 230 7 5.4 5.0
2020-Jan-20 22:50 240 13 gusting 22 5.4 4.0
2020-Jan-20 22:20 250 13 gusting 24 5.4 5.0
2020-Jan-20 21:50 270 13 5.4 4.0
2020-Jan-20 21:20 280 17 5.4 4.0
2020-Jan-20 20:50 280 18 5.4 4.0
2020-Jan-20 20:20 280 18 5.4 4.0
2020-Jan-20 19:50 290 20 5.4 4.0
2020-Jan-20 19:20 300 18 5.4 4.0
2020-Jan-20 18:50 280 19 5.4 4.0
2020-Jan-20 18:20 260 18 5.4 4.0
2020-Jan-20 17:50 260 17 5.4 4.0
2020-Jan-20 17:20 280 15 5.4 3.0 Light rain.
2020-Jan-20 16:50 290 15 4.9 3.0 Light rain.
2020-Jan-20 16:20 310 13 4.3 4.0 Light rain.
2020-Jan-20 15:50 260 18 5.4 4.0 Light rain.
2020-Jan-20 15:20 250 24 gusting 39 4.9 5.0 Light rain.
2020-Jan-20 14:50 250 24 gusting 35 3.2 5.0 Light rain.
2020-Jan-20 14:20 250 24 gusting 36 4.3 5.0 Light rain.
2020-Jan-20 13:50 250 20 gusting 34 3.2 5.0 Rain.
2020-Jan-20 13:20 250 24 gusting 35 5.4 5.0